Time,TemperatureF,DewpointF,PressureIn,WindDirection,WindDirectionDegrees,WindSpeedMPH,WindSpeedGustMPH,Humidity,HourlyPrecipIn,Conditions,Clouds,dailyrainin,SoftwareType,DateUTC
2013-09-27 00:00:00,49.3,45.0,30.15,NNE,22,0.0,0.0,85,0.00,,CLR,0.00,VWS V14.01,2013-09-27 04:00:00,
2013-09-27 00:01:00,49.3,45.0,30.15,NNE,22,0.0,0.0,85,0.00,,CLR,0.00,VWS V14.01,2013-09-27 04:01:00,
2013-09-27 00:02:00,49.3,44.7,30.15,NNE,22,0.0,0.0,84,0.00,,CLR,0.00,VWS V14.01,2013-09-27 04:02:00,
2013-09-27 00:07:00,49.1,44.8,30.15,NNE,22,0.0,0.0,85,0.00,,CLR,0.00,VWS V14.01,2013-09-27 04:07:00,
2013-09-27 00:12:00,48.9,44.6,30.15,NNE,22,0.0,0.0,85,0.00,,CLR,0.00,VWS V14.01,2013-09-27 04:12:00,
2013-09-27 00:15:00,49.1,44.8,30.15,NNE,22,0.0,0.0,85,0.00,,,0.00,VWS V14.01,2013-09-27 04:15:00,
2013-09-27 00:17:00,48.7,44.1,30.15,NNE,22,0.0,0.0,84,0.00,,CLR,0.00,VWS V14.01,2013-09-27 04:17:00,
2013-09-27 00:22:00,48.7,44.4,30.15,NNE,22,0.0,0.0,85,0.00,,CLR,0.00,VWS V14.01,2013-09-27 04:22:00,
2013-09-27 00:27:00,48.6,44.0,30.15,NNE,22,0.0,0.0,84,0.00,,CLR,0.00,VWS V14.01,2013-09-27 04:27:00,
2013-09-27 00:30:00,48.7,44.4,30.15,NNE,22,0.0,0.0,85,0.00,,,0.00,VWS V14.01,2013-09-27 04:30:00,
2013-09-27 00:32:00,48.6,44.3,30.15,NNE,22,0.0,0.0,85,0.00,,CLR,0.00,VWS V14.01,2013-09-27 04:32:00,
2013-09-27 00:37:00,48.4,44.1,30.15,NNE,22,0.0,0.0,85,0.00,,CLR,0.00,VWS V14.01,2013-09-27 04:37:00,
2013-09-27 00:42:00,48.2,43.9,30.15,NNE,22,0.0,0.0,85,0.00,,CLR,0.00,VWS V14.01,2013-09-27 04:42:00,
2013-09-27 00:45:00,48.4,44.1,30.15,NNE,22,0.0,0.0,85,0.00,,,0.00,VWS V14.01,2013-09-27 04:45:00,
2013-09-27 00:47:00,48.2,43.9,30.15,NNE,22,0.0,0.0,85,0.00,,CLR,0.00,VWS V14.01,2013-09-27 04:47:00,
2013-09-27 00:52:00,48.0,43.7,30.15,NNE,22,0.0,0.0,85,0.00,,CLR,0.00,VWS V14.01,2013-09-27 04:52:00,
2013-09-27 00:57:00,47.8,43.6,30.18,NNE,22,0.0,0.0,85,0.00,,CLR,0.00,VWS V14.01,2013-09-27 04:57:00,
2013-09-27 01:00:00,49.5,45.2,30.15,NNE,22,0.0,0.0,85,0.00,,-RA,0.00,VWS V14.01,2013-09-27 05:00:00,
2013-09-27 01:02:00,47.7,43.4,30.18,NNE,22,0.0,0.0,85,0.00,,CLR,0.00,VWS V14.01,2013-09-27 05:02:00,
2013-09-27 01:07:00,47.7,43.7,30.18,NNE,22,0.0,0.0,86,0.00,,CLR,0.00,VWS V14.01,2013-09-27 05:07:00,
2013-09-27 01:12:00,47.5,43.2,30.18,NNE,22,0.0,0.0,85,0.00,,CLR,0.00,VWS V14.01,2013-09-27 05:12:00,
2013-09-27 01:15:00,47.7,43.7,30.18,NNE,22,0.0,0.0,86,0.00,,,0.00,VWS V14.01,2013-09-27 05:15:00,
2013-09-27 01:17:00,47.3,43.0,30.15,NNE,22,0.0,0.0,85,0.00,,CLR,0.00,VWS V14.01,2013-09-27 05:17:00,
2013-09-27 01:22:00,47.1,42.8,30.15,NNE,22,0.0,0.0,85,0.00,,CLR,0.00,VWS V14.01,2013-09-27 05:22:00,
2013-09-27 01:27:00,47.1,43.2,30.15,NNE,22,0.0,0.0,86,0.00,,CLR,0.00,VWS V14.01,2013-09-27 05:27:00,
2013-09-27 01:30:00,47.1,42.8,30.15,NNE,22,0.0,0.0,85,0.00,,,0.00,VWS V14.01,2013-09-27 05:30:00,
2013-09-27 01:32:00,46.9,43.0,30.18,NNE,22,0.0,0.0,86,0.00,,CLR,0.00,VWS V14.01,2013-09-27 05:32:00,
2013-09-27 01:37:00,46.8,42.8,30.18,NNE,22,0.0,0.0,86,0.00,,CLR,0.00,VWS V14.01,2013-09-27 05:37:00,
2013-09-27 01:42:00,46.8,42.8,30.18,NNE,22,0.0,0.0,86,0.00,,CLR,0.00,VWS V14.01,2013-09-27 05:42:00,
2013-09-27 01:45:00,46.9,43.0,30.18,NNE,22,0.0,0.0,86,0.00,,,0.00,VWS V14.01,2013-09-27 05:45:00,
2013-09-27 01:47:00,46.6,42.6,30.18,NNE,22,0.0,0.0,86,0.00,,CLR,0.00,VWS V14.01,2013-09-27 05:47:00,
2013-09-27 01:52:00,46.6,42.6,30.18,NNE,22,0.0,0.0,86,0.00,,CLR,0.00,VWS V14.01,2013-09-27 05:52:00,
2013-09-27 01:57:00,46.4,42.5,30.18,NNE,22,0.0,0.0,86,0.00,,CLR,0.00,VWS V14.01,2013-09-27 05:57:00,
2013-09-27 02:00:00,46.6,42.6,30.18,NNE,22,0.0,0.0,86,0.00,,,0.00,VWS V14.01,2013-09-27 06:00:00,
2013-09-27 02:02:00,46.2,42.3,30.18,NNE,22,0.0,0.0,86,0.00,,CLR,0.00,VWS V14.01,2013-09-27 06:02:00,
2013-09-27 02:07:00,46.2,42.6,30.18,NNE,22,0.0,0.0,87,0.00,,CLR,0.00,VWS V14.01,2013-09-27 06:07:00,
2013-09-27 02:12:00,46.0,42.1,30.18,NNE,22,0.0,0.0,86,0.00,,CLR,0.00,VWS V14.01,2013-09-27 06:12:00,
2013-09-27 02:15:00,46.2,42.6,30.18,NNE,22,0.0,0.0,87,0.00,,,0.00,VWS V14.01,2013-09-27 06:15:00,
2013-09-27 02:17:00,45.9,41.9,30.18,NNE,22,0.0,0.0,86,0.00,,CLR,0.00,VWS V14.01,2013-09-27 06:17:00,
2013-09-27 02:22:00,45.7,41.7,30.18,NNE,22,0.0,0.0,86,0.00,,CLR,0.00,VWS V14.01,2013-09-27 06:22:00,
2013-09-27 02:27:00,45.7,41.7,30.21,NNE,22,0.0,0.0,86,0.00,,CLR,0.00,VWS V14.01,2013-09-27 06:27:00,
2013-09-27 02:30:00,45.7,41.7,30.18,NNE,22,0.0,0.0,86,0.00,,,0.00,VWS V14.01,2013-09-27 06:30:00,
2013-09-27 02:32:00,45.5,41.9,30.21,NNE,22,0.0,0.0,87,0.00,,CLR,0.00,VWS V14.01,2013-09-27 06:32:00,
2013-09-27 02:37:00,45.5,41.9,30.21,NNE,22,0.0,0.0,87,0.00,,CLR,0.00,VWS V14.01,2013-09-27 06:37:00,
2013-09-27 02:42:00,45.5,41.9,30.21,NNE,22,0.0,0.0,87,0.00,,CLR,0.00,VWS V14.01,2013-09-27 06:42:00,
2013-09-27 02:45:00,46.9,43.0,30.18,NNE,22,0.0,0.0,86,0.00,,-RA,0.00,VWS V14.01,2013-09-27 06:45:00,
2013-09-27 02:47:00,45.5,42.2,30.21,NNE,22,0.0,0.0,88,0.00,,CLR,0.00,VWS V14.01,2013-09-27 06:47:00,
2013-09-27 02:52:00,45.5,42.2,30.21,NNE,22,0.0,0.0,88,0.00,,CLR,0.00,VWS V14.01,2013-09-27 06:52:00,
2013-09-27 02:57:00,45.5,42.2,30.21,NNE,22,0.0,0.0,88,0.00,,CLR,0.00,VWS V14.01,2013-09-27 06:57:00,
2013-09-27 03:00:00,45.5,42.2,30.21,NNE,22,0.0,0.0,88,0.00,,,0.00,VWS V14.01,2013-09-27 07:00:00,
2013-09-27 03:02:00,45.3,41.7,30.21,NNE,22,0.0,0.0,87,0.00,,CLR,0.00,VWS V14.01,2013-09-27 07:02:00,
2013-09-27 03:07:00,45.3,42.0,30.21,NNE,22,0.0,0.0,88,0.00,,CLR,0.00,VWS V14.01,2013-09-27 07:07:00,
2013-09-27 03:12:00,45.3,42.0,30.21,NNE,22,0.0,0.0,88,0.00,,CLR,0.00,VWS V14.01,2013-09-27 07:12:00,
2013-09-27 03:15:00,45.3,42.0,30.21,NNE,22,0.0,0.0,88,0.00,,,0.00,VWS V14.01,2013-09-27 07:15:00,
2013-09-27 03:17:00,45.3,42.0,30.21,NNE,22,0.0,0.0,88,0.00,,CLR,0.00,VWS V14.01,2013-09-27 07:17:00,
2013-09-27 03:22:00,45.3,42.0,30.21,NNE,22,0.0,0.0,88,0.00,,CLR,0.00,VWS V14.01,2013-09-27 07:22:00,
2013-09-27 03:27:00,45.1,41.8,30.18,NNE,22,0.0,0.0,88,0.00,,CLR,0.00,VWS V14.01,2013-09-27 07:27:00,
2013-09-27 03:30:00,45.3,42.0,30.21,NNE,22,0.0,0.0,88,0.00,,,0.00,VWS V14.01,2013-09-27 07:30:00,
2013-09-27 03:32:00,45.0,41.6,30.18,NNE,22,0.0,0.0,88,0.00,,CLR,0.00,VWS V14.01,2013-09-27 07:32:00,
2013-09-27 03:37:00,44.8,41.2,30.18,NNE,22,0.0,0.0,87,0.00,,CLR,0.00,VWS V14.01,2013-09-27 07:37:00,
2013-09-27 03:42:00,44.8,41.5,30.21,NNE,22,0.0,0.0,88,0.00,,CLR,0.00,VWS V14.01,2013-09-27 07:42:00,
2013-09-27 03:45:00,44.8,41.2,30.18,NNE,22,0.0,0.0,87,0.00,,,0.00,VWS V14.01,2013-09-27 07:45:00,
2013-09-27 03:47:00,44.6,41.3,30.21,NNE,22,0.0,0.0,88,0.00,,CLR,0.00,VWS V14.01,2013-09-27 07:47:00,
2013-09-27 03:49:00,44.6,41.3,30.21,NNE,22,0.0,0.0,88,0.00,,CLR,0.00,VWS V14.01,2013-09-27 07:49:00,
2013-09-27 03:54:00,44.4,41.1,30.21,NNE,22,0.0,0.0,88,0.00,,CLR,0.00,VWS V14.01,2013-09-27 07:54:00,
2013-09-27 03:59:00,44.4,41.1,30.18,NNE,22,0.0,0.0,88,0.00,,CLR,0.00,VWS V14.01,2013-09-27 07:59:00,
2013-09-27 04:00:00,44.4,41.1,30.21,NNE,22,0.0,0.0,88,0.00,,,0.00,VWS V14.01,2013-09-27 08:00:00,
2013-09-27 04:04:00,44.1,40.7,30.18,NNE,22,0.0,0.0,88,0.00,,CLR,0.00,VWS V14.01,2013-09-27 08:04:00,
2013-09-27 04:09:00,44.1,40.7,30.18,NNE,22,0.0,0.0,88,0.00,,CLR,0.00,VWS V14.01,2013-09-27 08:09:00,
2013-09-27 04:14:00,44.1,41.0,30.21,NNE,22,0.0,0.0,89,0.00,,CLR,0.00,VWS V14.01,2013-09-27 08:14:00,
2013-09-27 04:15:00,44.1,40.7,30.18,NNE,22,0.0,0.0,88,0.00,,,0.00,VWS V14.01,2013-09-27 08:15:00,
2013-09-27 04:19:00,44.1,41.0,30.21,NNE,22,0.0,0.0,89,0.00,,CLR,0.00,VWS V14.01,2013-09-27 08:19:00,
2013-09-27 04:24:00,43.7,40.4,30.21,NNE,22,0.0,0.0,88,0.00,,CLR,0.00,VWS V14.01,2013-09-27 08:24:00,
2013-09-27 04:29:00,43.7,40.4,30.21,NNE,22,0.0,0.0,88,0.00,,CLR,0.00,VWS V14.01,2013-09-27 08:29:00,
2013-09-27 04:30:00,44.1,41.0,30.21,NNE,22,0.0,0.0,89,0.00,,,0.00,VWS V14.01,2013-09-27 08:30:00,
2013-09-27 04:35:00,43.5,40.5,30.21,NNE,22,0.0,0.0,89,0.00,,CLR,0.00,VWS V14.01,2013-09-27 08:35:00,
2013-09-27 04:40:00,43.7,40.7,30.21,NNE,22,0.0,0.0,89,0.00,,CLR,0.00,VWS V14.01,2013-09-27 08:40:00,
2013-09-27 04:45:00,43.5,40.2,30.21,NNE,22,0.0,0.0,88,0.00,,CLR,0.00,VWS V14.01,2013-09-27 08:45:00,
2013-09-27 04:50:00,43.3,40.0,30.21,NNE,22,0.0,0.0,88,0.00,,CLR,0.00,VWS V14.01,2013-09-27 08:50:00,
2013-09-27 04:55:00,43.0,39.7,30.21,NNE,22,0.0,0.0,88,0.00,,CLR,0.00,VWS V14.01,2013-09-27 08:55:00,
2013-09-27 05:00:00,43.0,39.7,30.21,NNE,22,0.0,0.0,88,0.00,,CLR,0.00,VWS V14.01,2013-09-27 09:00:00,
2013-09-27 05:05:00,42.8,39.5,30.21,NNE,22,0.0,0.0,88,0.00,,CLR,0.00,VWS V14.01,2013-09-27 09:05:00,
2013-09-27 05:10:00,43.0,40.0,30.21,NNE,22,0.0,0.0,89,0.00,,CLR,0.00,VWS V14.01,2013-09-27 09:10:00,
2013-09-27 05:14:00,42.8,39.8,30.21,NNE,22,0.0,0.0,89,0.00,,CLR,0.00,VWS V14.01,2013-09-27 09:14:00,
2013-09-27 05:15:00,42.8,39.5,30.21,NNE,22,0.0,0.0,88,0.00,,,0.00,VWS V14.01,2013-09-27 09:15:00,
2013-09-27 05:19:00,43.0,40.2,30.21,NNE,22,0.0,0.0,90,0.00,,CLR,0.00,VWS V14.01,2013-09-27 09:19:00,
2013-09-27 05:24:00,43.0,40.0,30.21,NNE,22,0.0,0.0,89,0.00,,CLR,0.00,VWS V14.01,2013-09-27 09:24:00,
2013-09-27 05:29:00,43.0,40.0,30.21,NNE,22,0.0,0.0,89,0.00,,CLR,0.00,VWS V14.01,2013-09-27 09:29:00,
2013-09-27 05:30:00,43.0,40.2,30.21,NNE,22,0.0,0.0,90,0.00,,,0.00,VWS V14.01,2013-09-27 09:30:00,
2013-09-27 05:34:00,42.8,39.8,30.21,NNE,22,0.0,0.0,89,0.00,,CLR,0.00,VWS V14.01,2013-09-27 09:34:00,
2013-09-27 05:40:00,42.6,39.6,30.21,NNE,22,0.0,0.0,89,0.00,,CLR,0.00,VWS V14.01,2013-09-27 09:40:00,
2013-09-27 05:45:00,42.4,39.4,30.21,NNE,22,0.0,0.0,89,0.00,,CLR,0.00,VWS V14.01,2013-09-27 09:45:00,
2013-09-27 05:50:00,42.4,39.7,30.21,NNE,22,0.0,0.0,90,0.00,,CLR,0.00,VWS V14.01,2013-09-27 09:50:00,
2013-09-27 05:55:00,42.4,39.4,30.21,NNE,22,0.0,0.0,89,0.00,,CLR,0.00,VWS V14.01,2013-09-27 09:55:00,
2013-09-27 06:00:00,42.3,39.3,30.21,NNE,22,0.0,0.0,89,0.00,,CLR,0.00,VWS V14.01,2013-09-27 10:00:00,
2013-09-27 06:05:00,42.1,39.1,30.21,NNE,22,0.0,0.0,89,0.00,,CLR,0.00,VWS V14.01,2013-09-27 10:05:00,
2013-09-27 06:10:00,42.1,39.4,30.21,NNE,22,0.0,0.0,90,0.00,,CLR,0.00,VWS V14.01,2013-09-27 10:10:00,
2013-09-27 06:14:00,42.1,39.4,30.21,NNE,22,0.0,0.0,90,0.00,,CLR,0.00,VWS V14.01,2013-09-27 10:14:00,
2013-09-27 06:15:00,42.8,39.5,30.21,NNE,22,0.0,0.0,88,0.00,,-RA,0.00,VWS V14.01,2013-09-27 10:15:00,
2013-09-27 06:19:00,42.1,39.4,30.21,NNE,22,0.0,0.0,90,0.00,,CLR,0.00,VWS V14.01,2013-09-27 10:19:00,
2013-09-27 06:24:00,42.1,39.7,30.21,NNE,22,0.0,0.0,91,0.00,,CLR,0.00,VWS V14.01,2013-09-27 10:24:00,
2013-09-27 06:29:00,42.1,39.7,30.21,NNE,22,0.0,0.0,91,0.00,,CLR,0.00,VWS V14.01,2013-09-27 10:29:00,
2013-09-27 06:30:00,42.1,39.4,30.21,NNE,22,0.0,0.0,90,0.00,,,0.00,VWS V14.01,2013-09-27 10:30:00,
2013-09-27 06:34:00,41.7,39.0,30.21,SSW,202,0.0,0.0,90,0.00,,CLR,0.00,VWS V14.01,2013-09-27 10:34:00,
2013-09-27 06:40:00,41.7,39.3,30.21,SSW,202,0.0,0.0,91,0.00,,CLR,0.00,VWS V14.01,2013-09-27 10:40:00,
2013-09-27 06:44:00,41.4,38.7,30.21,SSW,202,0.0,0.0,90,0.00,,CLR,0.00,VWS V14.01,2013-09-27 10:44:00,
2013-09-27 06:45:00,41.7,39.0,30.21,SSW,202,0.0,0.0,90,0.00,,,0.00,VWS V14.01,2013-09-27 10:45:00,
2013-09-27 06:49:00,41.4,38.7,30.21,SSW,202,0.0,0.0,90,0.00,,CLR,0.00,VWS V14.01,2013-09-27 10:49:00,
2013-09-27 06:54:00,41.4,38.9,30.21,SSW,202,0.0,0.0,91,0.00,,CLR,0.00,VWS V14.01,2013-09-27 10:54:00,
2013-09-27 06:59:00,41.4,38.9,30.21,SSW,202,0.0,0.0,91,0.00,,CLR,0.00,VWS V14.01,2013-09-27 10:59:00,
2013-09-27 07:00:00,41.4,38.7,30.21,SSW,202,0.0,0.0,90,0.00,,,0.00,VWS V14.01,2013-09-27 11:00:00,
2013-09-27 07:04:00,41.4,38.9,30.21,SSW,202,0.0,0.0,91,0.00,,CLR,0.00,VWS V14.01,2013-09-27 11:04:00,
2013-09-27 07:09:00,41.4,38.9,30.21,SSW,202,0.0,0.0,91,0.00,,CLR,0.00,VWS V14.01,2013-09-27 11:09:00,
2013-09-27 07:14:00,41.4,38.9,30.24,SSW,202,0.0,0.0,91,0.00,,CLR,0.00,VWS V14.01,2013-09-27 11:14:00,
2013-09-27 07:15:00,41.4,38.9,30.21,SSW,202,0.0,0.0,91,0.00,,,0.00,VWS V14.01,2013-09-27 11:15:00,
2013-09-27 07:19:00,41.2,38.8,30.24,SSW,202,0.0,0.0,91,0.00,,CLR,0.00,VWS V14.01,2013-09-27 11:19:00,
2013-09-27 07:24:00,41.2,38.8,30.24,SSW,202,0.0,0.0,91,0.00,,CLR,0.00,VWS V14.01,2013-09-27 11:24:00,
2013-09-27 07:29:00,41.0,38.6,30.24,SSW,202,0.0,0.0,91,0.00,,CLR,0.00,VWS V14.01,2013-09-27 11:29:00,
2013-09-27 07:30:00,41.2,38.8,30.24,SSW,202,0.0,0.0,91,0.00,,,0.00,VWS V14.01,2013-09-27 11:30:00,
2013-09-27 07:34:00,41.0,38.6,30.24,SSW,202,0.0,0.0,91,0.00,,CLR,0.00,VWS V14.01,2013-09-27 11:34:00,
2013-09-27 07:39:00,41.2,38.8,30.24,SSW,202,0.0,0.0,91,0.00,,CLR,0.00,VWS V14.01,2013-09-27 11:39:00,
2013-09-27 07:44:00,41.0,38.6,30.24,SSW,202,0.0,0.0,91,0.00,,CLR,0.00,VWS V14.01,2013-09-27 11:44:00,
2013-09-27 07:45:00,41.0,38.6,30.24,SSW,202,0.0,0.0,91,0.00,,,0.00,VWS V14.01,2013-09-27 11:45:00,
2013-09-27 07:49:00,41.0,38.6,30.24,SSW,202,0.0,0.0,91,0.00,,CLR,0.00,VWS V14.01,2013-09-27 11:49:00,
2013-09-27 07:54:00,41.4,39.2,30.24,SSW,202,0.0,0.0,92,0.00,,CLR,0.00,VWS V14.01,2013-09-27 11:54:00,
2013-09-27 08:00:00,41.5,39.7,30.24,SSW,202,0.0,0.0,93,0.00,,CLR,0.00,VWS V14.01,2013-09-27 12:00:00,
2013-09-27 08:05:00,41.9,40.3,30.24,SSW,202,0.0,0.0,94,0.00,,CLR,0.00,VWS V14.01,2013-09-27 12:05:00,
2013-09-27 08:10:00,42.1,40.8,30.24,SSW,202,0.0,0.0,95,0.00,,CLR,0.00,VWS V14.01,2013-09-27 12:10:00,
2013-09-27 08:15:00,42.1,40.5,30.24,SSW,202,0.0,0.0,94,0.00,,CLR,0.00,VWS V14.01,2013-09-27 12:15:00,
2013-09-27 08:20:00,42.3,40.7,30.24,SSW,202,0.0,0.0,94,0.00,,CLR,0.00,VWS V14.01,2013-09-27 12:20:00,
2013-09-27 08:25:00,42.3,40.7,30.24,SSW,202,0.0,0.0,94,0.00,,CLR,0.00,VWS V14.01,2013-09-27 12:25:00,
2013-09-27 08:30:00,42.3,40.7,30.27,SSW,202,0.0,0.0,94,0.00,,CLR,0.00,VWS V14.01,2013-09-27 12:30:00,
2013-09-27 08:35:00,43.5,42.7,30.27,SSW,202,0.0,0.0,97,0.00,,CLR,0.00,VWS V14.01,2013-09-27 12:35:00,
2013-09-27 08:40:00,44.1,43.5,30.27,SSW,202,0.0,0.0,98,0.00,,CLR,0.00,VWS V14.01,2013-09-27 12:40:00,
2013-09-27 08:45:00,44.1,43.5,30.27,SSW,202,0.0,0.0,98,0.00,,CLR,0.00,VWS V14.01,2013-09-27 12:45:00,
2013-09-27 08:50:00,45.7,45.7,30.27,SSW,202,0.0,0.0,100,0.00,,CLR,0.00,VWS V14.01,2013-09-27 12:50:00,
2013-09-27 08:55:00,46.2,46.2,30.27,SSW,202,0.0,0.0,100,0.00,,CLR,0.00,VWS V14.01,2013-09-27 12:55:00,
2013-09-27 09:00:00,46.2,46.2,30.27,SSW,202,0.0,0.0,100,0.00,,CLR,0.00,VWS V14.01,2013-09-27 13:00:00,
2013-09-27 09:05:00,46.2,46.2,30.27,SSW,202,0.0,0.0,100,0.00,,CLR,0.00,VWS V14.01,2013-09-27 13:05:00,
2013-09-27 09:10:00,46.9,46.9,30.27,NNW,338,0.0,0.0,100,0.00,,CLR,0.00,VWS V14.01,2013-09-27 13:10:00,
2013-09-27 09:15:00,48.2,48.2,30.27,WNW,292,0.0,0.0,100,0.00,,CLR,0.00,VWS V14.01,2013-09-27 13:15:00,
2013-09-27 09:20:00,48.7,48.7,30.27,WNW,292,0.0,0.0,100,0.00,,CLR,0.00,VWS V14.01,2013-09-27 13:20:00,
2013-09-27 09:25:00,50.0,50.0,30.27,WNW,292,0.0,0.0,100,0.00,,CLR,0.00,VWS V14.01,2013-09-27 13:25:00,
2013-09-27 09:30:00,50.7,50.7,30.27,WNW,292,0.0,0.0,100,0.00,,CLR,0.00,VWS V14.01,2013-09-27 13:30:00,
2013-09-27 09:35:00,51.6,51.6,30.27,WNW,292,0.0,0.0,100,0.00,,CLR,0.00,VWS V14.01,2013-09-27 13:35:00,
2013-09-27 09:40:00,52.2,52.2,30.27,WNW,292,0.0,0.0,100,0.00,,CLR,0.00,VWS V14.01,2013-09-27 13:40:00,
2013-09-27 09:45:00,52.9,52.9,30.27,WNW,292,0.0,0.0,100,0.00,,CLR,0.00,VWS V14.01,2013-09-27 13:45:00,
2013-09-27 09:50:00,53.4,53.4,30.27,WNW,292,0.0,0.0,100,0.00,,CLR,0.00,VWS V14.01,2013-09-27 13:50:00,
2013-09-27 09:55:00,54.0,54.0,30.27,WNW,292,0.0,0.0,100,0.00,,CLR,0.00,VWS V14.01,2013-09-27 13:55:00,
2013-09-27 10:00:00,54.7,54.7,30.27,NNW,338,0.0,0.0,100,0.00,,BKN044,0.00,VWS V14.01,2013-09-27 14:00:00,
2013-09-27 10:05:00,55.2,55.0,30.27,ENE,68,0.0,0.0,99,0.00,,BKN044,0.00,VWS V14.01,2013-09-27 14:05:00,
2013-09-27 10:10:00,55.6,54.5,30.27,NNE,22,1.1,1.7,96,0.00,,BKN044,0.00,VWS V14.01,2013-09-27 14:10:00,
2013-09-27 10:15:00,56.1,54.7,30.27,NNW,338,0.0,0.0,95,0.00,,BKN044,0.00,VWS V14.01,2013-09-27 14:15:00,
2013-09-27 10:20:00,56.7,53.8,30.27,ENE,68,2.5,3.7,90,0.00,,BKN044,0.00,VWS V14.01,2013-09-27 14:20:00,
2013-09-27 10:25:00,57.0,53.5,30.27,NNE,22,2.5,3.7,88,0.00,,BKN044,0.00,VWS V14.01,2013-09-27 14:25:00,
2013-09-27 10:30:00,57.7,51.6,30.27,WNW,292,2.7,4.0,80,0.00,,BKN044,0.00,VWS V14.01,2013-09-27 14:30:00,
2013-09-27 10:35:00,58.1,53.0,30.27,North,0,0.9,1.3,83,0.00,,BKN044,0.00,VWS V14.01,2013-09-27 14:35:00,
2013-09-27 10:40:00,58.6,51.8,30.27,NNE,22,0.0,0.0,78,0.00,,BKN044,0.00,VWS V14.01,2013-09-27 14:40:00,
2013-09-27 10:45:00,59.4,52.9,30.27,ENE,68,2.2,3.4,79,0.00,,BKN044,0.00,VWS V14.01,2013-09-27 14:45:00,
2013-09-27 10:50:00,59.4,52.9,30.27,NNE,22,1.1,1.7,79,0.00,,BKN044,0.00,VWS V14.01,2013-09-27 14:50:00,
2013-09-27 10:55:00,59.4,52.9,30.27,NE,45,2.0,3.0,79,0.00,,BKN044,0.00,VWS V14.01,2013-09-27 14:55:00,
2013-09-27 11:00:00,59.4,52.9,30.27,NE,45,0.0,0.0,79,0.00,,CLR,0.00,VWS V14.01,2013-09-27 15:00:00,
2013-09-27 11:05:00,62.4,54.0,30.27,NNE,22,1.3,2.0,74,0.00,,CLR,0.00,VWS V14.01,2013-09-27 15:05:00,
2013-09-27 11:10:00,63.9,54.7,30.27,NNE,22,1.6,2.3,72,0.00,,CLR,0.00,VWS V14.01,2013-09-27 15:10:00,
2013-09-27 11:15:00,64.2,52.6,30.27,NW,315,0.0,0.0,66,0.00,,CLR,0.00,VWS V14.01,2013-09-27 15:15:00,
2013-09-27 11:20:00,65.5,53.0,30.27,ENE,68,2.2,3.4,64,0.00,,CLR,0.00,VWS V14.01,2013-09-27 15:20:00,
2013-09-27 11:25:00,65.3,52.4,30.27,NNW,338,4.0,6.0,63,0.00,,CLR,0.00,VWS V14.01,2013-09-27 15:25:00,
2013-09-27 11:30:00,67.1,54.1,30.27,NW,315,0.9,1.3,63,0.00,,CLR,0.00,VWS V14.01,2013-09-27 15:30:00,
2013-09-27 11:35:00,67.6,53.7,30.27,North,0,1.1,1.7,61,0.00,,CLR,0.00,VWS V14.01,2013-09-27 15:35:00,
2013-09-27 11:40:00,67.3,53.4,30.27,NW,315,2.7,4.0,61,0.00,,CLR,0.00,VWS V14.01,2013-09-27 15:40:00,
2013-09-27 11:45:00,68.2,53.8,30.27,NNE,22,2.9,4.4,60,0.00,,CLR,0.00,VWS V14.01,2013-09-27 15:45:00,
2013-09-27 11:50:00,67.6,52.3,30.27,NNE,22,2.9,4.4,58,0.00,,CLR,0.00,VWS V14.01,2013-09-27 15:50:00,
2013-09-27 11:55:00,68.5,54.1,30.27,North,0,1.6,2.3,60,0.00,,CLR,0.00,VWS V14.01,2013-09-27 15:55:00,
2013-09-27 12:00:00,68.5,54.1,30.27,NE,45,1.6,2.3,60,0.00,,FEW034,0.00,VWS V14.01,2013-09-27 16:00:00,
2013-09-27 12:05:00,68.5,54.1,30.27,NNE,22,3.1,4.7,60,0.00,,FEW034,0.00,VWS V14.01,2013-09-27 16:05:00,
2013-09-27 12:10:00,68.5,54.1,30.27,NE,45,0.0,0.0,60,0.00,,FEW034,0.00,VWS V14.01,2013-09-27 16:10:00,
2013-09-27 12:15:00,68.9,53.5,30.27,ENE,68,2.5,3.7,58,0.00,,FEW034,0.00,VWS V14.01,2013-09-27 16:15:00,
2013-09-27 12:20:00,68.9,53.5,30.27,NNE,22,0.0,0.0,58,0.00,,FEW034,0.00,VWS V14.01,2013-09-27 16:20:00,
2013-09-27 12:25:00,69.1,53.7,30.27,ESE,112,1.1,1.7,58,0.00,,FEW034,0.00,VWS V14.01,2013-09-27 16:25:00,
2013-09-27 12:30:00,68.7,53.4,30.27,NNE,22,1.6,2.3,58,0.00,,FEW034,0.00,VWS V14.01,2013-09-27 16:30:00,
2013-09-27 12:35:00,69.4,54.0,30.27,WSW,248,0.0,0.0,58,0.00,,FEW034,0.00,VWS V14.01,2013-09-27 16:35:00,
2013-09-27 12:40:00,70.5,56.0,30.27,ENE,68,1.3,2.0,60,0.00,,FEW034,0.00,VWS V14.01,2013-09-27 16:40:00,
2013-09-27 12:45:00,70.5,54.6,30.27,ENE,68,1.3,2.0,57,0.00,,FEW034,0.00,VWS V14.01,2013-09-27 16:45:00,
2013-09-27 12:50:00,69.1,53.7,30.27,NNW,338,3.4,5.0,58,0.00,,FEW034,0.00,VWS V14.01,2013-09-27 16:50:00,
2013-09-27 12:55:00,68.9,53.5,30.27,NNW,338,3.4,5.0,58,0.00,,FEW034,0.00,VWS V14.01,2013-09-27 16:55:00,
2013-09-27 13:00:00,69.4,54.0,30.27,NNW,338,3.4,5.0,58,0.00,,BKN038,0.00,VWS V14.01,2013-09-27 17:00:00,
2013-09-27 13:05:00,70.0,54.1,30.27,NNE,22,2.9,4.4,57,0.00,,BKN038,0.00,VWS V14.01,2013-09-27 17:05:00,
2013-09-27 13:10:00,69.3,53.9,30.27,NNE,22,2.9,4.4,58,0.00,,BKN038,0.00,VWS V14.01,2013-09-27 17:10:00,
2013-09-27 13:15:00,68.9,53.5,30.24,NNE,22,2.9,4.4,58,0.00,,BKN038,0.00,VWS V14.01,2013-09-27 17:15:00,
2013-09-27 13:20:00,69.6,54.2,30.24,NNE,22,2.9,4.4,58,0.00,,BKN038,0.00,VWS V14.01,2013-09-27 17:20:00,
2013-09-27 13:25:00,69.8,53.9,30.24,NNE,22,2.9,4.4,57,0.00,,BKN038,0.00,VWS V14.01,2013-09-27 17:25:00,
2013-09-27 13:26:00,69.8,53.9,30.24,NNE,22,2.9,4.4,57,0.00,,BKN038,0.00,VWS V14.01,2013-09-27 17:26:00,
2013-09-27 13:30:00,69.6,54.2,30.24,NNE,22,2.9,4.4,58,0.00,,,0.00,VWS V14.01,2013-09-27 17:30:00,
2013-09-27 13:31:00,69.8,53.9,30.24,NNE,22,2.9,4.4,57,0.00,,BKN038,0.00,VWS V14.01,2013-09-27 17:31:00,
2013-09-27 13:36:00,70.2,54.2,30.24,NNE,22,2.9,4.4,57,0.00,,BKN038,0.00,VWS V14.01,2013-09-27 17:36:00,
2013-09-27 13:41:00,70.9,54.9,30.24,NNE,22,2.9,4.4,57,0.00,,BKN038,0.00,VWS V14.01,2013-09-27 17:41:00,
2013-09-27 13:45:00,70.2,54.2,30.24,NNE,22,2.9,4.4,57,0.00,,,0.00,VWS V14.01,2013-09-27 17:45:00,
2013-09-27 13:46:00,70.9,54.9,30.24,NNE,22,2.9,4.4,57,0.00,,BKN038,0.00,VWS V14.01,2013-09-27 17:46:00,
2013-09-27 13:51:00,69.8,53.9,30.24,NNE,22,1.3,2.0,57,0.00,,BKN038,0.00,VWS V14.01,2013-09-27 17:51:00,
2013-09-27 13:56:00,70.3,54.4,30.21,East,90,0.9,1.3,57,0.00,,BKN038,0.00,VWS V14.01,2013-09-27 17:56:00,
2013-09-27 14:00:00,69.8,53.9,30.24,NNE,22,1.3,2.0,57,0.00,,,0.00,VWS V14.01,2013-09-27 18:00:00,
2013-09-27 14:01:00,70.5,54.6,30.21,East,90,0.9,1.3,57,0.00,,FEW040,0.00,VWS V14.01,2013-09-27 18:01:00,
2013-09-27 14:06:00,70.3,53.4,30.21,East,90,0.9,1.3,55,0.00,,FEW040,0.00,VWS V14.01,2013-09-27 18:06:00,
2013-09-27 14:11:00,70.3,53.4,30.24,East,90,0.9,1.3,55,0.00,,FEW040,0.00,VWS V14.01,2013-09-27 18:11:00,
2013-09-27 14:15:00,70.3,53.4,30.21,East,90,0.9,1.3,55,0.00,,,0.00,VWS V14.01,2013-09-27 18:15:00,
2013-09-27 14:16:00,70.2,53.3,30.24,NNE,22,3.8,5.7,55,0.00,,FEW040,0.00,VWS V14.01,2013-09-27 18:16:00,
2013-09-27 14:21:00,69.6,52.8,30.24,NNE,22,3.8,5.7,55,0.00,,FEW040,0.00,VWS V14.01,2013-09-27 18:21:00,
2013-09-27 14:26:00,69.8,52.9,30.21,NNE,22,3.8,5.7,55,0.00,,FEW040,0.00,VWS V14.01,2013-09-27 18:26:00,
2013-09-27 14:30:00,69.6,52.8,30.24,NNE,22,3.8,5.7,55,0.00,,,0.00,VWS V14.01,2013-09-27 18:30:00,
2013-09-27 14:31:00,70.3,53.4,30.21,NNE,22,3.8,5.7,55,0.00,,FEW040,0.00,VWS V14.01,2013-09-27 18:31:00,
2013-09-27 14:36:00,70.7,53.8,30.21,NNE,22,3.8,5.7,55,0.00,,FEW040,0.00,VWS V14.01,2013-09-27 18:36:00,
2013-09-27 14:41:00,71.1,54.1,30.21,NNE,22,3.8,5.7,55,0.00,,FEW040,0.00,VWS V14.01,2013-09-27 18:41:00,
2013-09-27 14:45:00,70.7,53.8,30.21,NNE,22,3.8,5.7,55,0.00,,,0.00,VWS V14.01,2013-09-27 18:45:00,
2013-09-27 14:46:00,71.8,54.3,30.21,NNE,22,3.8,5.7,54,0.00,,FEW040,0.00,VWS V14.01,2013-09-27 18:46:00,
2013-09-27 14:51:00,71.8,54.3,30.21,NNE,22,3.8,5.7,54,0.00,,FEW040,0.00,VWS V14.01,2013-09-27 18:51:00,
2013-09-27 14:56:00,71.4,54.4,30.21,NNE,22,3.8,5.7,55,0.00,,FEW040,0.00,VWS V14.01,2013-09-27 18:56:00,
2013-09-27 15:00:00,71.8,54.3,30.21,NNE,22,3.8,5.7,54,0.00,,,0.00,VWS V14.01,2013-09-27 19:00:00,
2013-09-27 15:01:00,71.8,54.3,30.21,NNE,22,3.8,5.7,54,0.00,,CLR,0.00,VWS V14.01,2013-09-27 19:01:00,
2013-09-27 15:06:00,72.1,54.6,30.21,West,270,2.5,3.7,54,0.00,,CLR,0.00,VWS V14.01,2013-09-27 19:06:00,
2013-09-27 15:11:00,72.5,54.9,30.21,South,180,1.1,1.7,54,0.00,,CLR,0.00,VWS V14.01,2013-09-27 19:11:00,
2013-09-27 15:15:00,72.1,54.6,30.21,West,270,2.5,3.7,54,0.00,,,0.00,VWS V14.01,2013-09-27 19:15:00,
2013-09-27 15:16:00,72.9,55.3,30.21,SSE,158,2.0,3.0,54,0.00,,CLR,0.00,VWS V14.01,2013-09-27 19:16:00,
2013-09-27 15:21:00,72.5,54.9,30.21,North,0,0.0,0.0,54,0.00,,CLR,0.00,VWS V14.01,2013-09-27 19:21:00,
2013-09-27 15:26:00,73.9,56.3,30.18,SW,225,1.6,2.3,54,0.00,,CLR,0.00,VWS V14.01,2013-09-27 19:26:00,
2013-09-27 15:30:00,72.5,54.9,30.21,North,0,0.0,0.0,54,0.00,,,0.00,VWS V14.01,2013-09-27 19:30:00,
2013-09-27 15:31:00,73.9,56.3,30.18,SE,135,1.1,1.7,54,0.00,,CLR,0.00,VWS V14.01,2013-09-27 19:31:00,
2013-09-27 15:36:00,73.2,55.6,30.18,NNW,338,1.3,2.0,54,0.00,,CLR,0.00,VWS V14.01,2013-09-27 19:36:00,
2013-09-27 15:42:00,73.6,55.9,30.21,SSW,202,0.0,0.0,54,0.00,,CLR,0.00,VWS V14.01,2013-09-27 19:42:00,
2013-09-27 15:45:00,73.2,55.6,30.18,NNW,338,1.3,2.0,54,0.00,,,0.00,VWS V14.01,2013-09-27 19:45:00,
2013-09-27 15:47:00,72.5,54.9,30.21,SSW,202,0.0,0.0,54,0.00,,CLR,0.00,VWS V14.01,2013-09-27 19:47:00,
2013-09-27 15:52:00,72.9,55.3,30.21,ENE,68,0.0,0.0,54,0.00,,CLR,0.00,VWS V14.01,2013-09-27 19:52:00,
2013-09-27 15:57:00,72.7,55.1,30.21,ENE,68,0.0,0.0,54,0.00,,CLR,0.00,VWS V14.01,2013-09-27 19:57:00,
2013-09-27 16:00:00,72.9,55.3,30.21,ENE,68,0.0,0.0,54,0.00,,,0.00,VWS V14.01,2013-09-27 20:00:00,
2013-09-27 16:02:00,72.9,55.3,30.21,ENE,68,0.0,0.0,54,0.00,,FEW046,0.00,VWS V14.01,2013-09-27 20:02:00,
2013-09-27 16:07:00,73.6,55.9,30.21,ENE,68,0.0,0.0,54,0.00,,FEW046,0.00,VWS V14.01,2013-09-27 20:07:00,
2013-09-27 16:12:00,74.8,57.1,30.21,ENE,68,0.0,0.0,54,0.00,,FEW046,0.00,VWS V14.01,2013-09-27 20:12:00,
2013-09-27 16:15:00,73.6,55.9,30.21,ENE,68,0.0,0.0,54,0.00,,,0.00,VWS V14.01,2013-09-27 20:15:00,
2013-09-27 16:17:00,75.7,57.4,30.21,ENE,68,0.0,0.0,53,0.00,,FEW046,0.00,VWS V14.01,2013-09-27 20:17:00,
2013-09-27 16:22:00,74.7,56.9,30.21,ENE,68,0.0,0.0,54,0.00,,FEW046,0.00,VWS V14.01,2013-09-27 20:22:00,
2013-09-27 16:27:00,74.1,56.4,30.21,ENE,68,0.0,0.0,54,0.00,,FEW046,0.00,VWS V14.01,2013-09-27 20:27:00,
2013-09-27 16:30:00,74.7,56.9,30.21,ENE,68,0.0,0.0,54,0.00,,,0.00,VWS V14.01,2013-09-27 20:30:00,
2013-09-27 16:32:00,74.1,56.4,30.21,NNE,22,3.1,4.7,54,0.00,,FEW046,0.00,VWS V14.01,2013-09-27 20:32:00,
2013-09-27 16:37:00,75.0,57.3,30.21,WNW,292,2.5,3.7,54,0.00,,FEW046,0.00,VWS V14.01,2013-09-27 20:37:00,
2013-09-27 16:42:00,74.7,56.9,30.18,WNW,292,2.5,3.7,54,0.00,,FEW046,0.00,VWS V14.01,2013-09-27 20:42:00,
2013-09-27 16:45:00,73.2,55.6,30.18,NNW,338,1.3,2.0,54,0.00,,-RA,0.00,VWS V14.01,2013-09-27 20:45:00,
2013-09-27 16:47:00,76.5,58.1,30.18,WNW,292,2.5,3.7,53,0.00,,FEW046,0.00,VWS V14.01,2013-09-27 20:47:00,
2013-09-27 16:52:00,75.9,57.6,30.18,WNW,292,2.5,3.7,53,0.00,,FEW046,0.00,VWS V14.01,2013-09-27 20:52:00,
2013-09-27 16:57:00,73.9,56.3,30.21,West,270,1.1,1.7,54,0.00,,FEW046,0.00,VWS V14.01,2013-09-27 20:57:00,
2013-09-27 17:00:00,75.9,57.6,30.18,WNW,292,2.5,3.7,53,0.00,,,0.00,VWS V14.01,2013-09-27 21:00:00,
2013-09-27 17:02:00,72.5,54.9,30.21,NNE,22,1.3,2.0,54,0.00,,FEW050,0.00,VWS V14.01,2013-09-27 21:02:00,
2013-09-27 17:07:00,72.5,54.9,30.21,NNE,22,1.3,2.0,54,0.00,,FEW050,0.00,VWS V14.01,2013-09-27 21:07:00,
2013-09-27 17:12:00,72.1,54.6,30.21,NNW,338,0.9,1.3,54,0.00,,FEW050,0.00,VWS V14.01,2013-09-27 21:12:00,
2013-09-27 17:15:00,72.5,54.9,30.21,NNE,22,1.3,2.0,54,0.00,,,0.00,VWS V14.01,2013-09-27 21:15:00,
2013-09-27 17:17:00,71.6,54.1,30.21,NNW,338,0.9,1.3,54,0.00,,FEW050,0.00,VWS V14.01,2013-09-27 21:17:00,
2013-09-27 17:22:00,71.4,54.4,30.21,North,0,1.1,1.7,55,0.00,,FEW050,0.00,VWS V14.01,2013-09-27 21:22:00,
2013-09-27 17:27:00,72.1,54.6,30.21,North,0,1.6,2.3,54,0.00,,FEW050,0.00,VWS V14.01,2013-09-27 21:27:00,
2013-09-27 17:30:00,71.4,54.4,30.21,North,0,1.1,1.7,55,0.00,,,0.00,VWS V14.01,2013-09-27 21:30:00,
2013-09-27 17:32:00,72.3,54.8,30.21,North,0,1.6,2.3,54,0.00,,FEW050,0.00,VWS V14.01,2013-09-27 21:32:00,
2013-09-27 17:37:00,72.7,55.1,30.21,North,0,0.9,1.3,54,0.00,,FEW050,0.00,VWS V14.01,2013-09-27 21:37:00,
2013-09-27 17:42:00,73.0,55.4,30.21,North,0,0.9,1.3,54,0.00,,FEW050,0.00,VWS V14.01,2013-09-27 21:42:00,
2013-09-27 17:45:00,72.7,55.1,30.21,North,0,0.9,1.3,54,0.00,,,0.00,VWS V14.01,2013-09-27 21:45:00,
2013-09-27 17:47:00,72.5,54.9,30.21,North,0,0.9,1.3,54,0.00,,FEW050,0.00,VWS V14.01,2013-09-27 21:47:00,
2013-09-27 17:52:00,72.7,55.1,30.21,North,0,0.9,1.3,54,0.00,,FEW050,0.00,VWS V14.01,2013-09-27 21:52:00,
2013-09-27 17:57:00,72.9,55.3,30.21,North,0,0.9,1.3,54,0.00,,FEW050,0.00,VWS V14.01,2013-09-27 21:57:00,
2013-09-27 18:00:00,72.7,55.1,30.21,North,0,0.9,1.3,54,0.00,,,0.00,VWS V14.01,2013-09-27 22:00:00,
2013-09-27 18:02:00,72.5,54.9,30.21,North,0,0.9,1.3,54,0.00,,CLR,0.00,VWS V14.01,2013-09-27 22:02:00,
2013-09-27 18:07:00,72.3,54.8,30.21,North,0,0.9,1.3,54,0.00,,CLR,0.00,VWS V14.01,2013-09-27 22:07:00,
2013-09-27 18:12:00,70.7,53.8,30.21,North,0,0.9,1.3,55,0.00,,CLR,0.00,VWS V14.01,2013-09-27 22:12:00,
2013-09-27 18:15:00,72.3,54.8,30.21,North,0,0.9,1.3,54,0.00,,,0.00,VWS V14.01,2013-09-27 22:15:00,
2013-09-27 18:17:00,68.9,52.1,30.21,North,0,0.0,0.0,55,0.00,,CLR,0.00,VWS V14.01,2013-09-27 22:17:00,
2013-09-27 18:22:00,67.8,51.1,30.21,North,0,0.0,0.0,55,0.00,,CLR,0.00,VWS V14.01,2013-09-27 22:22:00,
2013-09-27 18:27:00,67.1,51.8,30.21,North,0,0.0,0.0,58,0.00,,CLR,0.00,VWS V14.01,2013-09-27 22:27:00,
2013-09-27 18:30:00,68.0,51.2,30.21,North,0,0.0,0.0,55,0.00,,,0.00,VWS V14.01,2013-09-27 22:30:00,
2013-09-27 18:32:00,66.7,51.5,30.21,North,0,0.0,0.0,58,0.00,,CLR,0.00,VWS V14.01,2013-09-27 22:32:00,
2013-09-27 18:37:00,66.0,52.2,30.21,North,0,0.0,0.0,61,0.00,,CLR,0.00,VWS V14.01,2013-09-27 22:37:00,
2013-09-27 18:42:00,65.7,51.9,30.18,North,0,0.0,0.0,61,0.00,,CLR,0.00,VWS V14.01,2013-09-27 22:42:00,
2013-09-27 18:45:00,66.2,51.9,30.21,North,0,0.0,0.0,60,0.00,,,0.00,VWS V14.01,2013-09-27 22:45:00,
2013-09-27 18:47:00,65.1,51.8,30.18,North,0,0.0,0.0,62,0.00,,CLR,0.00,VWS V14.01,2013-09-27 22:47:00,
2013-09-27 18:52:00,64.6,51.3,30.18,North,0,0.0,0.0,62,0.00,,CLR,0.00,VWS V14.01,2013-09-27 22:52:00,
2013-09-27 18:57:00,64.0,50.8,30.18,North,0,0.0,0.0,62,0.00,,CLR,0.00,VWS V14.01,2013-09-27 22:57:00,
2013-09-27 19:00:00,64.6,51.3,30.18,North,0,0.0,0.0,62,0.00,,,0.00,VWS V14.01,2013-09-27 23:00:00,
2013-09-27 19:02:00,63.3,50.5,30.18,North,0,0.0,0.0,63,0.00,,CLR,0.00,VWS V14.01,2013-09-27 23:02:00,
2013-09-27 19:07:00,62.6,50.3,30.18,North,0,0.0,0.0,64,0.00,,CLR,0.00,VWS V14.01,2013-09-27 23:07:00,
2013-09-27 19:12:00,62.2,49.9,30.21,North,0,0.0,0.0,64,0.00,,CLR,0.00,VWS V14.01,2013-09-27 23:12:00,
2013-09-27 19:15:00,62.8,50.4,30.18,North,0,0.0,0.0,64,0.00,,,0.00,VWS V14.01,2013-09-27 23:15:00,
2013-09-27 19:17:00,61.5,50.1,30.21,North,0,0.0,0.0,66,0.00,,CLR,0.00,VWS V14.01,2013-09-27 23:17:00,
2013-09-27 19:22:00,61.0,50.0,30.21,North,0,0.0,0.0,67,0.00,,CLR,0.00,VWS V14.01,2013-09-27 23:22:00,
2013-09-27 19:27:00,60.4,49.8,30.18,North,0,0.0,0.0,68,0.00,,CLR,0.00,VWS V14.01,2013-09-27 23:27:00,
2013-09-27 19:30:00,61.0,50.0,30.21,North,0,0.0,0.0,67,0.00,,,0.00,VWS V14.01,2013-09-27 23:30:00,
2013-09-27 19:32:00,60.1,49.5,30.18,North,0,0.0,0.0,68,0.00,,CLR,0.00,VWS V14.01,2013-09-27 23:32:00,
2013-09-27 19:37:00,59.7,50.3,30.18,North,0,0.0,0.0,71,0.00,,CLR,0.00,VWS V14.01,2013-09-27 23:37:00,
2013-09-27 19:42:00,59.4,50.0,30.21,North,0,0.0,0.0,71,0.00,,CLR,0.00,VWS V14.01,2013-09-27 23:42:00,
2013-09-27 19:45:00,59.7,50.3,30.18,North,0,0.0,0.0,71,0.00,,,0.00,VWS V14.01,2013-09-27 23:45:00,
2013-09-27 19:47:00,58.8,50.2,30.21,North,0,0.0,0.0,73,0.00,,CLR,0.00,VWS V14.01,2013-09-27 23:47:00,
2013-09-27 19:52:00,58.6,50.0,30.21,North,0,0.0,0.0,73,0.00,,CLR,0.00,VWS V14.01,2013-09-27 23:52:00,
2013-09-27 19:57:00,58.3,49.3,30.21,North,0,0.0,0.0,72,0.00,,CLR,0.00,VWS V14.01,2013-09-27 23:57:00,
2013-09-27 20:00:00,58.6,50.0,30.21,North,0,0.0,0.0,73,0.00,,,0.00,VWS V14.01,2013-09-28 00:00:00,
2013-09-27 20:02:00,57.6,49.0,30.21,North,0,0.0,0.0,73,0.00,,CLR,0.00,VWS V14.01,2013-09-28 00:02:00,
2013-09-27 20:07:00,57.0,48.8,30.21,North,0,0.0,0.0,74,0.00,,CLR,0.00,VWS V14.01,2013-09-28 00:07:00,
2013-09-27 20:12:00,57.0,48.8,30.24,North,0,0.0,0.0,74,0.00,,CLR,0.00,VWS V14.01,2013-09-28 00:12:00,
2013-09-27 20:15:00,57.0,48.8,30.21,North,0,0.0,0.0,74,0.00,,,0.00,VWS V14.01,2013-09-28 00:15:00,
2013-09-27 20:17:00,56.8,48.7,30.24,North,0,0.0,0.0,74,0.00,,CLR,0.00,VWS V14.01,2013-09-28 00:17:00,
2013-09-27 20:22:00,56.5,48.7,30.24,North,0,0.0,0.0,75,0.00,,CLR,0.00,VWS V14.01,2013-09-28 00:22:00,
2013-09-27 20:27:00,56.3,48.8,30.21,North,0,0.0,0.0,76,0.00,,CLR,0.00,VWS V14.01,2013-09-28 00:27:00,
2013-09-27 20:30:00,56.7,48.8,30.24,North,0,0.0,0.0,75,0.00,,,0.00,VWS V14.01,2013-09-28 00:30:00,
2013-09-27 20:32:00,55.9,48.1,30.21,North,0,0.0,0.0,75,0.00,,CLR,0.00,VWS V14.01,2013-09-28 00:32:00,
2013-09-27 20:37:00,55.8,48.0,30.21,North,0,0.0,0.0,75,0.00,,CLR,0.00,VWS V14.01,2013-09-28 00:37:00,
2013-09-27 20:42:00,55.6,48.2,30.24,North,0,0.0,0.0,76,0.00,,CLR,0.00,VWS V14.01,2013-09-28 00:42:00,
2013-09-27 20:45:00,55.8,48.0,30.21,North,0,0.0,0.0,75,0.00,,,0.00,VWS V14.01,2013-09-28 00:45:00,
2013-09-27 20:47:00,55.2,47.8,30.24,North,0,0.0,0.0,76,0.00,,CLR,0.00,VWS V14.01,2013-09-28 00:47:00,
2013-09-27 20:52:00,55.0,47.6,30.24,North,0,0.0,0.0,76,0.00,,CLR,0.00,VWS V14.01,2013-09-28 00:52:00,
2013-09-27 20:57:00,54.7,47.6,30.24,North,0,0.0,0.0,77,0.00,,CLR,0.00,VWS V14.01,2013-09-28 00:57:00,
2013-09-27 21:00:00,55.0,47.6,30.24,North,0,0.0,0.0,76,0.00,,,0.00,VWS V14.01,2013-09-28 01:00:00,
2013-09-27 21:02:00,54.9,48.1,30.24,North,0,0.0,0.0,78,0.00,,CLR,0.00,VWS V14.01,2013-09-28 01:02:00,
2013-09-27 21:07:00,54.5,47.8,30.24,North,0,0.0,0.0,78,0.00,,CLR,0.00,VWS V14.01,2013-09-28 01:07:00,
2013-09-27 21:12:00,54.1,47.1,30.24,SSW,202,0.0,0.0,77,0.00,,CLR,0.00,VWS V14.01,2013-09-28 01:12:00,
2013-09-27 21:15:00,54.5,47.8,30.24,North,0,0.0,0.0,78,0.00,,,0.00,VWS V14.01,2013-09-28 01:15:00,
2013-09-27 21:17:00,53.8,46.8,30.24,SSW,202,0.0,0.0,77,0.00,,CLR,0.00,VWS V14.01,2013-09-28 01:17:00,
2013-09-27 21:22:00,53.8,47.4,30.24,SSW,202,0.0,0.0,79,0.00,,CLR,0.00,VWS V14.01,2013-09-28 01:22:00,
2013-09-27 21:27:00,53.6,46.9,30.24,SSW,202,0.0,0.0,78,0.00,,CLR,0.00,VWS V14.01,2013-09-28 01:27:00,
2013-09-27 21:30:00,53.8,47.4,30.24,SSW,202,0.0,0.0,79,0.00,,,0.00,VWS V14.01,2013-09-28 01:30:00,
2013-09-27 21:32:00,53.4,47.1,30.24,SSW,202,0.0,0.0,79,0.00,,CLR,0.00,VWS V14.01,2013-09-28 01:32:00,
2013-09-27 21:37:00,53.4,47.4,30.24,SSW,202,0.0,0.0,80,0.00,,CLR,0.00,VWS V14.01,2013-09-28 01:37:00,
2013-09-27 21:42:00,53.2,46.9,30.24,SSW,202,0.0,0.0,79,0.00,,CLR,0.00,VWS V14.01,2013-09-28 01:42:00,
2013-09-27 21:45:00,53.4,47.4,30.24,SSW,202,0.0,0.0,80,0.00,,,0.00,VWS V14.01,2013-09-28 01:45:00,
2013-09-27 21:47:00,52.9,46.5,30.24,SSW,202,0.0,0.0,79,0.00,,CLR,0.00,VWS V14.01,2013-09-28 01:47:00,
2013-09-27 21:52:00,52.7,46.7,30.24,SSW,202,0.0,0.0,80,0.00,,CLR,0.00,VWS V14.01,2013-09-28 01:52:00,
2013-09-27 21:57:00,52.7,47.0,30.24,SSW,202,0.0,0.0,81,0.00,,CLR,0.00,VWS V14.01,2013-09-28 01:57:00,
2013-09-27 22:00:00,52.7,46.7,30.24,SSW,202,0.0,0.0,80,0.00,,,0.00,VWS V14.01,2013-09-28 02:00:00,
2013-09-27 22:02:00,52.5,46.5,30.24,SSW,202,0.0,0.0,80,0.00,,CLR,0.00,VWS V14.01,2013-09-28 02:02:00,
2013-09-27 22:07:00,52.2,46.2,30.24,SSW,202,0.0,0.0,80,0.00,,CLR,0.00,VWS V14.01,2013-09-28 02:07:00,
2013-09-27 22:12:00,52.0,46.0,30.24,SSW,202,0.0,0.0,80,0.00,,CLR,0.00,VWS V14.01,2013-09-28 02:12:00,
2013-09-27 22:15:00,52.3,46.4,30.24,SSW,202,0.0,0.0,80,0.00,,,0.00,VWS V14.01,2013-09-28 02:15:00,
2013-09-27 22:17:00,51.8,46.2,30.24,SSW,202,0.0,0.0,81,0.00,,CLR,0.00,VWS V14.01,2013-09-28 02:17:00,
2013-09-27 22:22:00,51.6,45.3,30.24,SSW,202,0.0,0.0,79,0.00,,CLR,0.00,VWS V14.01,2013-09-28 02:22:00,
2013-09-27 22:27:00,51.3,45.6,30.27,SSW,202,0.0,0.0,81,0.00,,CLR,0.00,VWS V14.01,2013-09-28 02:27:00,
2013-09-27 22:30:00,51.6,45.7,30.24,SSW,202,0.0,0.0,80,0.00,,,0.00,VWS V14.01,2013-09-28 02:30:00,
2013-09-27 22:32:00,51.1,45.5,30.27,SSW,202,0.0,0.0,81,0.00,,CLR,0.00,VWS V14.01,2013-09-28 02:32:00,
2013-09-27 22:37:00,51.3,46.3,30.27,SSW,202,0.0,0.0,83,0.00,,CLR,0.00,VWS V14.01,2013-09-28 02:37:00,
2013-09-27 22:42:00,51.1,46.1,30.27,SSW,202,0.0,0.0,83,0.00,,CLR,0.00,VWS V14.01,2013-09-28 02:42:00,
2013-09-27 22:45:00,51.3,46.0,30.27,SSW,202,0.0,0.0,82,0.00,,,0.00,VWS V14.01,2013-09-28 02:45:00,
2013-09-27 22:47:00,50.7,45.4,30.27,SSW,202,0.0,0.0,82,0.00,,CLR,0.00,VWS V14.01,2013-09-28 02:47:00,
2013-09-27 22:52:00,50.5,45.6,30.27,SSW,202,0.0,0.0,83,0.00,,CLR,0.00,VWS V14.01,2013-09-28 02:52:00,
2013-09-27 22:57:00,50.4,45.7,30.27,SSW,202,0.0,0.0,84,0.00,,CLR,0.00,VWS V14.01,2013-09-28 02:57:00,
2013-09-27 23:00:00,50.5,45.6,30.27,SSW,202,0.0,0.0,83,0.00,,,0.00,VWS V14.01,2013-09-28 03:00:00,
2013-09-27 23:02:00,50.2,45.2,30.27,SSW,202,0.0,0.0,83,0.00,,CLR,0.00,VWS V14.01,2013-09-28 03:02:00,
2013-09-27 23:07:00,50.0,44.7,30.27,SSW,202,0.0,0.0,82,0.00,,CLR,0.00,VWS V14.01,2013-09-28 03:07:00,
2013-09-27 23:12:00,50.0,45.4,30.27,SSW,202,0.0,0.0,84,0.00,,CLR,0.00,VWS V14.01,2013-09-28 03:12:00,
2013-09-27 23:15:00,50.0,44.7,30.27,SSW,202,0.0,0.0,82,0.00,,,0.00,VWS V14.01,2013-09-28 03:15:00,
2013-09-27 23:17:00,50.0,45.0,30.27,SSW,202,0.0,0.0,83,0.00,,CLR,0.00,VWS V14.01,2013-09-28 03:17:00,
2013-09-27 23:22:00,49.6,44.7,30.27,SSW,202,0.0,0.0,83,0.00,,CLR,0.00,VWS V14.01,2013-09-28 03:22:00,
2013-09-27 23:27:00,49.6,45.0,30.27,SSW,202,0.0,0.0,84,0.00,,CLR,0.00,VWS V14.01,2013-09-28 03:27:00,
2013-09-27 23:30:00,49.8,44.9,30.27,SSW,202,0.0,0.0,83,0.00,,,0.00,VWS V14.01,2013-09-28 03:30:00,
2013-09-27 23:32:00,49.5,44.8,30.27,SSW,202,0.0,0.0,84,0.00,,CLR,0.00,VWS V14.01,2013-09-28 03:32:00,
2013-09-27 23:37:00,49.3,44.3,30.27,SSW,202,0.0,0.0,83,0.00,,CLR,0.00,VWS V14.01,2013-09-28 03:37:00,
2013-09-27 23:42:00,49.3,45.0,30.24,SSW,202,0.0,0.0,85,0.00,,CLR,0.00,VWS V14.01,2013-09-28 03:42:00,
2013-09-27 23:45:00,49.3,44.3,30.27,SSW,202,0.0,0.0,83,0.00,,,0.00,VWS V14.01,2013-09-28 03:45:00,
2013-09-27 23:47:00,49.1,44.8,30.24,SSW,202,0.0,0.0,85,0.00,,CLR,0.00,VWS V14.01,2013-09-28 03:47:00,
2013-09-27 23:52:00,48.9,44.6,30.24,SSW,202,0.0,0.0,85,0.00,,CLR,0.00,VWS V14.01,2013-09-28 03:52:00,
2013-09-27 23:57:00,48.9,44.6,30.27,SSW,202,0.0,0.0,85,0.00,,CLR,0.00,VWS V14.01,2013-09-28 03:57:00,